Location: Lake Arresoe
(56.0000°N, 12.5000°E)
Time: 02:25:06
(UTC+02:00)

Okean 3 - Visible Passes

Search period start: 18 June 2018 00:00
Search period end: 28 June 2018 00:00
Orbit: 576 x 603 km, 82.5° (Epoch: 17 June)

Date Brightness Start Highest point End Pass type
(mag) Time Alt. Az. Time Alt. Az. Time Alt. Az.
18 Jun 6.3 03:05:29 10° NNE 03:08:10 16° ENE 03:10:50 10° E visible
19 Jun 6.1 03:13:13 10° NNE 03:16:26 21° ENE 03:19:39 10° ESE visible
20 Jun 5.7 03:21:04 10° N 03:24:41 27° ENE 03:28:17 10° SE visible
23 Jun 6.4 02:09:18 10° NNE 02:11:03 12° NE 02:12:47 10° ENE visible
24 Jun 6.2 02:16:46 10° NNE 02:19:22 16° ENE 02:21:57 10° E visible
25 Jun 6.0 02:24:29 10° NNE 02:27:38 20° ENE 02:30:48 10° ESE visible
26 Jun 5.6 02:32:18 10° N 02:35:53 26° ENE 02:39:28 10° ESE visible
27 Jun 5.1 02:40:13 10° N 02:44:05 34° ENE 02:47:58 10° SE visible
